Starlink 30381

operational
NORAD ID: 57785 Int'l Des: 2023-134 Owner: SPXS Country: US Constellation: starlink
LEOCIRCULAR

About Starlink 30381

Description loading...

Live Position

Loading 3D Globe...

Upcoming Passes

Altitude History

Altitude vs Time

uPlot chart will show altitude changes over time

Two-Line Element Set

1 57785U 23134Q 25308.63334112 -.00000195 00000-0 62931-6 0 9999
2 57785 43.0027 156.5813 0001237 263.9300 96.1401 15.02535544120665
Epoch: Nov 4, 2025 • Age: 10 hours

Current Status

Altitude 558.8 km
Velocity 7.58 km/s
Sub-Earth Point -0.17°S, 93.69°W
Launch Date Sep 4, 2023
Age 2.1 years
Type internet

Technical Details

Classification Payload
Mass 730.00 kg
Dry Mass 700.00 kg
Total Mass 730.00 kg
Length 0.30 m
Diameter 4.10 m
Span 29.00 m
Shape Box + pan
Manufacturer SPXS
Bus Type Starlink V2M
Phase Status In Orbit
Owner/State SPXS/US

Large Constellations

Loading constellations...